1st Responders/1st Detectors/Storm Spotters Weather Summary for Powell County, KY

Forecast Maps


Reg. NEXRAD Animation


National Fire Danger: Day 1 & 2 Map

Current NWS Watch/Warnings

SPC Convective Day 1 Outlook


Day 2 Outlook

(Click images to enlarge|Page will refresh every 5 minutes)
UK Ag. Weather Center Desktop Severe Weather Service[HERE]
Powell County, KY Hazardous Weather Outlook Webcast
(9 AM to 9 PM Mon-Fri)
[Fast]
[Dial-up]


UKAWC 1st Detectors/1st Responders Precision Weather Forecast For POWELL County, Kentucky
(based on the NWS County Digital Forecast)

ISSUED AT 21:00 UTC ON THURSDAY OCT 19 2017
DAY THURSDAY
EDT 3HR 6P 7P
MAX/MIN -- 72°
TEMP 67° 63°
SKY COVER 0% 0%
Clouds
DEW PT 47° 49°
RH 48% 57%
POP 12HR -- --
RAIN/SNOW (liq.equ) -- --
SNOWFALL -- --
WIND SPEED(MPH) 5 5
WIND Gust(MPH) 7 7
WIND DIR SW SW
DEW -- --
HeatIndex 67 63
Rain Showers -- --
Fog -- --
WIND CHILL -- --
SPRAY COND
DRY COND
LIVESTOCK COLDSTRESS
LIVESTOCK HEATSTRESS 64.65 62.01



DAY FRIDAY SATURDAY SUNDAY MONDAY TUESDAY WEDNESDAY
EDT 6HR 8P 9P 10P 11P MIDN 1A 2A 3A 4A 5A 6A 7A 8A 9A 10A 11A NOON 1P 2P 3P 4P 5P 6P 7P 8P 9P 10P 11P MIDN 1A 2A 3A 4A 5A 8A 11A 2P 5P 8P 2A 8A 2P 8P 2A 8A 2P 8P 2A 8A 2P 8P 2A 8A 2P 8P
MAX/MIN -- -- -- -- -- -- -- -- -- -- -- -- 43° -- -- -- -- -- -- -- -- -- -- 74° -- -- -- -- -- -- -- -- -- -- 45° -- -- 77° -- -- 47° 79° -- -- 56° 72° -- -- 54° 63° -- -- 43° 56° --
TEMP 58° 56° 54° 52° 50° 49° 47° 47° 47° 45° 43° 43° 43° 47° 52° 58° 63° 68° 72° 74° 74° 74° 70° 65° 61° 58° 56° 54° 54° 52° 52° 50° 49° 47° 49° 65° 76° 76° 65° 52° 49° 77° 67° 61° 58° 72° 63° 58° 54° 63° 54° 47° 43° 56° 47°
SKY COVER 0% 0% 0% 0% 0% 0% 0% 0% 0% 0% 0% 0% 0% 0% 0% 0% 0% 0% 0% 0% 0% 0% 0% 0% 2% 3% 5% 6% 7% 10% 12% 13% 16% 17% 19% 11% 18% 23% 24% 36% 42% 37% 37% 70% 90% 88% 87% 75% 81% 66% 53% 43% 44% 48% 35%
Clouds
DEW PT 50° 50° 49° 47° 47° 47° 47° 47° 47° 45° 43° 43° 43° 45° 47° 49° 49° 49° 47° 47° 47° 49° 49° 50° 52° 52° 52° 52° 50° 49° 49° 49° 47° 47° 47° 52° 49° 47° 49° 49° 47° 54° 54° 56° 56° 61° 58° 54° 50° 50° 47° 40° 38° 40° 38°
RH 74% 83% 83% 79% 85% 96% 99% 100% 99% 100% 100% 100% 99% 93% 80% 69% 58% 48% 42% 37% 38% 41% 48% 58% 74% 83% 89% 89% 89% 89% 89% 92% 92% 100% 89% 62% 39% 35% 53% 86% 96% 45% 65% 83% 96% 68% 87% 86% 89% 65% 74% 76% 78% 54% 71%
POP 12HR 0% -- -- -- -- -- -- -- -- -- -- -- 0% -- -- -- -- -- -- -- -- -- -- -- 1% -- -- -- -- -- -- -- -- -- 2% -- -- -- 2% -- 1% -- 5% -- 39% -- 67% -- 67% -- 52% -- 38% -- 28%
RAIN/SNOW (liq.equ) 0.00in -- -- -- -- -- 0.00in -- -- -- -- -- 0.00in -- -- -- -- -- 0.00in -- -- -- -- -- 0.00in -- -- -- -- -- 0.00in -- -- -- 0.00in -- 0.00in -- 0.00in -- -- -- -- -- -- -- -- -- -- -- -- -- -- -- --
SNOWFALL 0in -- -- -- -- -- 0in -- -- -- -- -- 0in -- -- -- -- -- 0in -- -- -- -- -- 0in -- -- -- -- -- 0in -- -- -- 0in -- 0in -- 0in -- -- -- -- -- -- -- -- -- -- -- -- -- -- -- --
WIND SPEED(MPH) 2 2 1 0 0 0 0 0 0 0 0 0 0 1 0 0 0 1 1 1 2 2 2 2 2 2 2 0 0 0 0 0 0 0 1 1 5 5 1 2 2 7 6 2 5 6 5 5 6 7 7 5 5 7 5
WIND DIR SW SW SW SW SW S S S S S S S S S S S SE SE SE SE SE SE SE E E E E E E SE SE SE SE SE SE S S S SE S S S SE S SE S S S W W W W W W W
HeatIndex 58 56 54 52 50 49 47 47 47 45 43 43 43 47 52 58 63 68 72 74 74 74 70 65 61 58 56 54 54 52 52 50 49 47 49 65 76 76 65 52 49 77 67 61 58 72 63 58 54 63 54 47 41 56 47
Rain Showers -- -- -- -- -- -- -- -- -- -- -- -- -- -- -- -- -- -- -- -- -- -- -- -- -- -- -- -- -- -- -- -- -- -- -- -- -- -- -- -- -- -- -- Slight Chance Chance Likely Likely Likely Chance Chance Chance -- Chance Chance --
Fog -- -- -- -- -- Patchy Patchy Patchy Patchy Patchy Patchy Patchy Patchy -- -- -- -- -- -- -- -- -- -- -- -- -- -- -- -- -- -- -- -- Patchy Patchy -- -- -- -- -- Areas of -- -- -- -- -- -- -- -- -- -- -- -- -- --
WIND CHILL -- -- -- -- -- -- -- -- -- -- -- -- -- -- -- -- -- -- -- -- -- -- -- -- -- -- -- -- -- -- -- -- -- -- -- -- -- -- -- -- -- -- -- -- -- -- -- -- -- -- -- -- 40° -- --
SPRAY COND
DRY COND
LIVESTOCK COLDSTRESS
LIVESTOCK HEATSTRESS 58.11 56.26 54.45 52.79 50.73 49.22 47.06 47.00 47.06 45.00 43.00 43.00 43.09 47.45 52.75 58.14 62.03 65.37 67.79 68.73 68.82 69.07 66.80 63.57 60.69 58.07 56.17 54.29 54.29 52.41 52.41 50.39 49.43 47.00 49.59 63.70 70.23 69.85 63.40 52.52 49.22 71.49 65.42 60.79 58.02 69.68 62.70 58.06 54.29 62.19 54.69 48.56 44.91 56.71 48.88

Click on individual weather variable above in left-hand column (ie., TEMP, RH, QPF 12HR) to view state forecast maps






NWS 48 Hr. Forecast Maps,

Regional Hourly Observations For POWELL County, Kentucky
Issued at 500 PM EDT THU OCT 19 2017
NORTHEAST KENTUCKY
  
CITY           SKY/WX    TMP DP  RH WIND       PRES   REMARKS
LEXINGTON      SUNNY     71  49  45 SW9       30.23S                  
COVINGTON      SUNNY     73  52  47 SW6       30.20S                  
FRANKFORT      SUNNY     72  48  42 SW8       30.21F                  


Current NOWCAST not available:
Nowcasts are not issued routinely during fair weather. Only when
precipitation or other significant weather is occuring in this county will these
forecasts be issued. Currently, there is no short term forecast in effect.


Fire Weather Forecast For POWELL County, KY
Provided by the National Weather Service:

Issued at: Thu Oct 19 17:05:01 EDT 2017

430 PM EDT Thu Oct 19 2017

.TONIGHT...
Sky/weather.........Clear. Patchy dense valley fog late. 
Min Temperature.....42-47. 
   24 hr trend......0-5 degrees warmer. 
Max Humidity........90-100 percent. 
   24 hr trend......Unchanged. 
Wind (20 ft)........Southwest winds around 5 mph. 
LAL.................1. 
Haines Index........5 or moderate potential for large plume 
                    dominated fire growth. 
ADI.................21 decreasing to 1 late. 
LVORI...............6. 
Prob of precip......0 percent. 
QPF (inches)........None. 

.FRIDAY...
Sky/weather.........Sunny. Patchy dense fog in the morning. 
Max Temperature.....75-80. 
   24 hr trend......0-5 degrees warmer. 
Min Humidity........28-33 percent. 
   24 hr trend......Unchanged. 
Wind (20 ft)........Southeast winds around 5 mph. 
LAL.................1. 
Haines Index........5 or moderate potential for large plume 
                    dominated fire growth. 
Mixing Height.......2800 ft agl. 
Transport Winds.....South around 5 mph. 
Dispersion Index....7. 
Vent Rate...........Poor (7200 knot-ft). 
ADI.................6. 
LVORI...............6. 
Prob of precip......0 percent. 
QPF (inches)........None. 

.FRIDAY NIGHT...
Sky/weather.........Mostly clear. Patchy dense valley fog late. 
Min Temperature.....45-50. 
   24 hr trend......0-5 degrees warmer. 
Max Humidity........90-100 percent. 
   24 hr trend......Unchanged. 
Wind (20 ft)........Southeast winds around 5 mph. 
LAL.................1. 
Haines Index........5 or moderate potential for large plume 
                    dominated fire growth. 
ADI.................5. 
LVORI...............6. 
Prob of precip......0 percent. 
QPF (inches)........None. 

.SATURDAY...
Sky/weather.........Sunny. Patchy dense valley fog early. 
Max Temperature.....75-80. 
   24 hr trend......0-5 degrees warmer. 
Min Humidity........30-35 percent. 
   24 hr trend......Unchanged. 
Wind (20 ft)........South winds around 5 mph. 
LAL.................1. 
Haines Index........5 or moderate potential for large plume 
                    dominated fire growth. 
Mixing Height.......3300 ft agl. 
Transport Winds.....South at 5 mph increasing to around 10 mph 
                    in the afternoon. 
Dispersion Index....30. 
Vent Rate...........Marginal (29900 knot-ft). 
ADI.................5 increasing to 40 in the afternoon. 
LVORI...............5. 
Prob of precip......0 percent. 
QPF (inches)........None. 

SPC's Fire Weather Web Tool (Excellent!), SPC's Fire Weather Outlooks, NWS Fire Weather WEB, Fire Danger Class Map,
Keetch-Byram Drought Index, ROMAN Web, Haines Index ,
WFAS's 10-hr Dead Fuel Moist., WFAS's 100-hr Dead Fuel Moist., Probablity of Ignition, Visual blackness Map, Palmer Drought Index, HPC's Rainfall Forecast Maps


Hazardous Weather Outlook For POWELL County, Kentucky
256 PM EDT Thu Oct 19 2017

 DAY ONE  Tonight.

No hazardous weather is expected at this time.

 DAYS TWO THROUGH SEVEN  Friday through Wednesday.

No hazardous weather is expected at this time.

 SPOTTER INFORMATION STATEMENT  

Spotter activation is not anticipated.

Latest POWELL County, Kentucky Watches, Warnings and Advisories.
Additional Drought Info.: UKAWC Drought Page, Kentucky Drought Watch


7-Day Forecast For POWELL County, KY

TONIGHT
Clear. Patchy dense valley fog late. Lows in the mid 40s. Light winds.

FRIDAY
Warm, sunny. Patchy dense valley fog early. Highs 75 to 80. Light winds.

FRIDAY NIGHT
Mostly clear. Patchy dense valley fog late. Lows in the upper 40s. Light winds.

SATURDAY
Sunny. Highs in the upper 70s. Light winds.

SATURDAY NIGHT
Partly cloudy. Patchy valley fog late. Lows in the lower 50s. Light winds.

SUNDAY
Mostly sunny. Highs in the upper 70s.

SUNDAY NIGHT
Mostly cloudy with a 40 percent chance of showers. Lows in the upper 50s.

MONDAY
Cloudy with showers likely. Highs in the lower 70s. Chance of rain 60 percent.

MONDAY NIGHT
Cloudy with showers likely. Lows in the lower 50s. Chance of rain 60 percent.

TUESDAY
Partly sunny with a 50 percent chance of showers. Highs in the mid 60s.

TUESDAY NIGHT
Partly cloudy with a 20 percent chance of rain showers. Lows around 40.

WEDNESDAY
Mostly sunny with a 20 percent chance of showers. Highs in the mid 50s.

WEDNESDAY NIGHT
Partly cloudy. Lows in the upper 30s.

THURSDAY
Mostly sunny with a 20 percent chance of rain showers. Highs in the upper 50s.

Ag Weather Center, Department of Biosystems & Agricultural Engineering, University of Kentucky